Preview of NWS' New Version of Forecast
This preview is not operational and should not be used for support decisions.

Regional Weather Roundup (RWR)

Issued by National Weather Service (NWS)

                            
000
ASUS44 KMEG 182200
RWRTN 
TENNESSEE HOURLY STATE WEATHER ROUNDUP
NATIONAL WEATHER SERVICE MEMPHIS TN
500 PM CDT MON MAR 18 2019

TNZ002-004-019-021-049-052-054-088>092-182300-
WEST TENNESSEE
  
CITY           SKY/WX    TMP DP  RH WIND       PRES   REMARKS
MEMPHIS INTL   FAIR      59  29  31 N12       30.33F                  
NWS MEMPHIS      N/A     57 N/A N/A MISG        N/A                   
JACKSON        PTSUNNY   56  26  31 N9        30.35F                  
DYERSBURG      FAIR      56  24  29 VRB3      30.37F                  
$$

TNZ008-025-027-028-033-062-065-066-182300-
NORTH MIDDLE TENNESSEE
  
CITY           SKY/WX    TMP DP  RH WIND       PRES   REMARKS
NASHVILLE      FAIR      54  18  24 N8        30.35F                  
CLARKSVILLE    FAIR      52  16  24 NE5       30.36R                  
SMYRNA         FAIR      53  21  28 N15       30.35F                  
CROSSVILLE     FAIR      46  13  26 N12       30.29S                  
$$

TNZ061-075-076-078-094-096-097-182300-
SOUTH MIDDLE TENNESSEE
  
CITY           SKY/WX    TMP DP  RH WIND       PRES   REMARKS
FAYETTEVILLE   SUNNY     52  18  25 NW14G20   30.30S                  
$$

TNZ017-018-042-046-047-182300-
NORTHEAST TENNESSEE
  
CITY           SKY/WX    TMP DP  RH WIND       PRES   REMARKS
TRI CITIES     FAIR      48  14  25 N8        30.28R                  
$$

TNZ012-013-036-069-073-074-182300-
CENTRAL EAST TENNESSEE
  
CITY           SKY/WX    TMP DP  RH WIND       PRES   REMARKS
KNOXVILLE      FAIR      51  14  22 N12G18    30.28F                  
OAK RIDGE      FAIR      52  14  22 E8        30.30S                  
$$

TNZ083-085-099-182300-
SOUTHEAST TENNESSEE
  
CITY           SKY/WX    TMP DP  RH WIND       PRES   REMARKS
CHATTANOOGA    PTSUNNY   55  12  18 N15       30.27S                  
$$

SKY/WX REPORTED AS FAIR MEANS FEW OR NO CLOUDS BELOW
12 THOUSAND FEET.